Regional Weather Roundup
Issued by NWS

Home | Current Version | Previous Version | Text Only | Print | Product List | Glossary Off
Versions: 1 2 3 4 5 6 7 8 9 10 11 12 13 14 15 16 17 18 19 20 21 22 23 24 25 26 27 28 29 30 31 32 33 34 35 36 37 38 39 40 41 42 43 44 45 46 47 48 49 50

000
ASUS43 KIND 282259
RWRIN

WEATHER ROUNDUP FOR INDIANA
NATIONAL WEATHER SERVICE INDIANAPOLIS IN
600 PM EST SAT FEB 28 2015

NOTE: "FAIR" INDICATES FEW OR NO CLOUDS BELOW 12,000 FEET WITH NO
SIGNIFICANT WEATHER AND/OR OBSTRUCTIONS TO VISIBILITY.

* - STATION DOES NOT REPORT WEATHER SUCH AS PRECIPITATION OR FOG.

+ - STATION NOT QUALITY CONTROLLED BY THE NATIONAL WEATHER SERVICE.
    USE DATA WITH CAUTION...ESPECIALLY DEWPOINT AND RELATIVE
    HUMIDITY OBSERVATIONS.

INZ001>003-010>013-019-020-010000-
NORTHWEST INDIANA

CITY           SKY/WX    TMP DP  RH WIND       PRES   REMARKS
GARY /AIRPORT/ MOCLDY    23   0  36 SE12      30.58F WCI  12
VALPARAISO     NOT AVBL

$$

LMZ046-743>745-010000-
SOUTHERN LAKE MICHIGAN

STATION/POSITION TIME  TEMP WIND        PRES
                       AIR  DIR/SP/G
                 (UTC) (F)  (DEG/KT/KT) (MB)
MICHIGAN CITY    2200   20  120/  7/  9   N/A

$$

INZ004-005-014>016-021>024-010000-
NORTH CENTRAL INDIANA

CITY           SKY/WX    TMP DP  RH WIND       PRES   REMARKS
ELKHART        PTCLDY    19   0  42 SE6       30.58F WCI  11
GOSHEN         MOCLDY    20   4  50 SE6       30.57F WCI  12
SOUTH BEND     PTCLDY    20   4  50 SE6       30.58F WCI  12

$$

INZ006>009-017-018-025>027-010000-
NORTHEAST INDIANA

CITY           SKY/WX    TMP DP  RH WIND       PRES   REMARKS
ANGOLA *+      CLEAR     16   1  53 SE6       30.57F WCI   7
FORT WAYNE     MOCLDY    19   5  54 E12       30.59F WCI   7

$$

INZ028-029-035-036-043>045-051>053-010000-
WEST CENTRAL INDIANA

CITY           SKY/WX    TMP DP  RH WIND       PRES   REMARKS
CRAWFORDSVL +  CLOUDY    23   3  42 E7        30.53S WCI  14
GREENCASTLE +  CLOUDY    25   7  46 E8        30.53S WCI  16
LAFAYETTE      CLOUDY    23   9  55 E12       30.54F WCI  12
TERRE HAUTE    CLOUDY    27  12  53 SE5       30.53F WCI  22

$$

INZ030>032-037>040-046>048-054>057-064-065-010000-
CENTRAL INDIANA

CITY           SKY/WX    TMP DP  RH WIND       PRES   REMARKS
GREENWOOD *+   CLOUDY    25   5  42 E7        30.55F WCI  17
INDIANAPOLIS   CLOUDY    24   8  50 E9        30.53F WCI  14
-EAGLE CREEK   CLOUDY    23   6  48 SE9       30.54F WCI  13
KOKOMO *+      CLOUDY    21   9  58 E10       30.56S WCI  10
MT COMFORT *+  CLOUDY    23   1  39 E7        30.55F WCI  15
SHELBYVILLE    CLOUDY    27  11  51 E7        30.54F WCI  19

$$

INZ033-034-041-042-049-050-058-059-010000-
EAST CENTRAL INDIANA

CITY           SKY/WX    TMP DP  RH WIND       PRES   REMARKS
MUNCIE         MOCLDY    21   7  54 E12       30.56S WCI   9

$$

INZ060-061-067>069-081>083-085>088-010000-
SOUTHWEST INDIANA

CITY           SKY/WX    TMP DP  RH WIND       PRES   REMARKS
EVANSVILLE     CLOUDY    35  18  49 NE8       30.48F WCI  29
HUNTINGBURG *+ CLOUDY    34  16  47 E8        30.50F WCI  27

$$

INZ062-063-066-070>080-084-089>092-010000-
SOUTH CENTRAL AND SOUTHEAST INDIANA

CITY           SKY/WX    TMP DP  RH WIND       PRES   REMARKS
BLOOMINGTON    CLOUDY    28  10  46 SE8       30.51F WCI  20
SEYMOUR +      CLOUDY    32  14  47 E5        30.53F WCI  27

$$




USA.gov is the U.S. government's official web portal to all federal, state and local government web resources and services.